Location: Pontbriand
(46.1542°N, 71.2542°W)
Time: 17:33:24
(UTC+00:00)

Envisat - Pass Details

Date: 03 December 2021
Orbit: 764 x 766 km, 98.2° (Epoch: 16 January)

Event Time Altitude Azimuth Distance (km) Brightness Sun altitude
Rises 09:29:10 0° 17° (NNE) 3,244 6.4 -27.0°
Reaches altitude 10° 09:31:32 10° 22° (NNE) 2,313 5.7 -26.6°
Maximum altitude 09:36:33 55° 100° (E) 918 3.6 -25.7°
Drops below altitude 10° 09:41:30 10° 178° (S) 2,295 5.5 -24.8°
Sets 09:43:50 0° 183° (S) 3,216 6.3 -24.4°
